This is the latest recevied weather packets stored in our database for station/object XE2MEM-21. If no packets are shown the sender has not sent any weather packets the latest 10 day(s).
| Time | Temp. | Humidity | Pressure | Rain* | Wind** | Luminosity | Snow |
|---|---|---|---|---|---|---|---|
| 1777544338 | 26.67° C | 100% | 1004 hPa | - | - | - | - |
| 1777544132 | 26.11° C | 100% | 1003.9 hPa | - | - | - | - |
| 1777544030 | 26.11° C | 100% | 1003.9 hPa | - | - | - | - |
| 1777543129 | 26.11° C | 100% | 1003.7 hPa | - | - | - | - |
| 1777542685 | 26.67° C | 100% | 1003.9 hPa | - | - | - | - |
| 1777541785 | 26.67° C | 100% | 1003.8 hPa | - | - | - | - |
| 1777531665 | 26.67° C | 100% | 1004.7 hPa | - | - | - | - |
| 1777528746 | 27.22° C | 100% | 1005.2 hPa | - | - | - | - |
| 1777528494 | 26.67° C | 100% | 1005.4 hPa | - | - | - | - |
| 1777527594 | 27.78° C | 100% | 1005.7 hPa | - | - | - | - |
| 1777526693 | 27.22° C | 100% | 1005.7 hPa | - | - | - | - |
| 1777525793 | 27.78° C | 100% | 1005.5 hPa | - | - | - | - |
| 1777524893 | 27.78° C | 100% | 1005.6 hPa | - | - | - | - |
| 1777523993 | 27.78° C | 100% | 1005.5 hPa | - | - | - | - |
| 1777523600 | 27.78° C | 100% | 1005.7 hPa | - | - | - | - |
| 1777522700 | 27.78° C | 100% | 1005.8 hPa | - | - | - | - |
| 1777521800 | 27.78° C | 100% | 1005.7 hPa | - | - | - | - |
| 1777520900 | 27.78° C | 100% | 1005.7 hPa | - | - | - | - |
| 1777519999 | 28.89° C | 100% | 1005.8 hPa | - | - | - | - |
| 1777519099 | 28.89° C | 100% | 1005.8 hPa | - | - | - | - |
| 1777518199 | 28.33° C | 100% | 1005.4 hPa | - | - | - | - |
| 1777517299 | 28.89° C | 100% | 1004.9 hPa | - | - | - | - |
* Rain since midnight (hover to see other rain measurements)
** Current wind speed in m/s (hover to see current wind gust speed)